Content
SEND FEEDBACK

Daily
Averages
Monthly
Summary
French Polynesia

FAAA, FRENCH POLYNESIA


Home > Oceania > French Polynesia
Elevation: 7 feet     Latitude: 17 33S     Longitude: 149 37W

WEATHER
 
SELECT A DAY
Number of Records: 216,220;   Date Range: 6/30/96 - 11/27/14
 
SHARE

PRINT THIS DATA

[ ← Previous Day ]
WEATHER ALMANAC - MAY 25, 2013
[ Next Day → ]
[ °C ]   °F
Weather ElementAverageHighLow
Temperature80.6 °F87.8 °F (12:00 pm)75.2 °F (1:30 am)
Dewpoint71.5 °F73.4 °F (9:30 am)69.8 °F (12:30 am)
Humidity73.2 %89 % (7:00 am)58 % (11:00 am)
Barometer29.91 in29.95 in (8:30 am)29.86 in (2:30 pm)
Wind Speed5.5 mph29.1 mph (2:00 pm)
Weather ElementAverage
Visibility8 mi
Wind DirectionESE (107.3 °)

Weather ElementTotal
Precipitation---
Cooling Degree Days16.5 (Base 65)
Growing Degree Days31.5 (Base 50)
Averaged from 55 records on May 25, 2013
WEATHER CONDITIONS BREAKOUT
WIND DIRECTION BREAKOUT
WEATHER BY HOUR - MAY 25, 2013
[ °C ]   °F
Local TimeTemperatureDewpointHumidityBarometerVisibilityWind DirectionWind SpeedGust SpeedPrecipitationEventsConditions
12:30 AM77.0 °F69.8 °F78 %29.92 in6.2 miESE (110°)1.2 mphPartly Cloudy
1:00 AM77.0 °F69.8 °F78 %29.92 in6.2 miEast (90°)3.5 mphPartly Cloudy
1:30 AM75.2 °F69.8 °F83 %29.92 in6.2 miVariable1.2 mphPartly Cloudy
2:00 AM76.0 °F70.0 °F78 %29.91 in12.0 miSE (130°)2.2 mphScattered Clouds
2:00 AM75.2 °F69.8 °F83 %29.89 in6.2 miCalmPartly Cloudy
2:30 AM77.0 °F69.8 °F78 %29.89 in6.2 miSSE (160°)4.6 mphPartly Cloudy
3:00 AM77.0 °F71.6 °F83 %29.89 in6.2 miSE (130°)2.3 mphPartly Cloudy
3:30 AM75.2 °F69.8 °F83 %29.89 in6.2 miVariable2.3 mph
4:00 AM75.2 °F69.8 °F83 %29.89 in6.2 miVariable2.3 mph
4:30 AM77.0 °F69.8 °F78 %29.89 in6.2 miSSE (150°)3.5 mph
5:00 AM76.0 °F70.0 °F76 %29.91 in37.0 miSE (140°)3.5 mphClear
5:00 AM77.0 °F69.8 °F78 %29.89 in6.2 miSE (140°)3.5 mph
5:30 AM75.2 °F69.8 °F83 %29.89 in6.2 miESE (110°)2.3 mph
6:00 AM75.2 °F69.8 °F83 %29.92 in6.2 miEast (80°)4.6 mphPartly Cloudy
6:30 AM75.2 °F69.8 °F83 %29.92 in6.2 miESE (120°)3.5 mphPartly Cloudy
7:00 AM75.2 °F71.6 °F89 %29.92 in6.2 miVariable2.3 mphPartly Cloudy
7:30 AM77.0 °F69.8 °F78 %29.92 in6.2 miEast (90°)5.8 mphPartly Cloudy
8:00 AM81.0 °F70.0 °F63 %29.94 in16.0 miENE (60°)5.8 mphPartly Cloudy
8:00 AM80.6 °F69.8 °F70 %29.92 in6.2 miENE (60°)5.8 mphPartly Cloudy
8:30 AM82.4 °F71.6 °F70 %29.95 in6.2 miNNE (20°)3.5 mphPartly Cloudy
9:00 AM84.2 °F71.6 °F66 %29.95 in6.2 miCalmPartly Cloudy
9:30 AM84.2 °F73.4 °F70 %29.95 in6.2 miWest (260°)3.5 mphPartly Cloudy
10:00 AM84.2 °F71.6 °F66 %29.95 in6.2 miWSW (240°)6.9 mphScattered Clouds
10:30 AM86.0 °F73.4 °F66 %29.95 in6.2 miWSW (240°)4.6 mphScattered Clouds
11:00 AM86.0 °F73.0 °F58 %29.95 in19.0 miWSW (240°)11.2 mphPartly Cloudy
11:00 AM86.0 °F73.4 °F66 %29.95 in6.2 miWSW (240°)5.8 mphScattered Clouds
11:30 AM86.0 °F73.4 °F66 %29.95 in6.2 miWSW (240°)4.6 mphPartly Cloudy
12:00 PM87.8 °F73.4 °F62 %29.92 in6.2 miWSW (250°)4.6 mphScattered Clouds
12:30 PM87.8 °F73.4 °F62 %29.92 in6.2 miVariable3.5 mphScattered Clouds
1:00 PM86.0 °F73.4 °F66 %29.89 in6.2 miWest (260°)4.6 mphScattered Clouds
1:30 PM86.0 °F73.4 °F66 %29.89 in6.2 miWest (260°)4.6 mphPartly Cloudy
2:00 PM86.0 °F73.0 °F58 %29.89 in19.0 miSSW (200°)29.1 mphPartly Cloudy
2:00 PM86.0 °F73.4 °F66 %29.89 in6.2 miSSW (200°)15.0 mphPartly Cloudy
2:30 PM84.2 °F73.4 °F70 %29.86 in6.2 miSouth (190°)19.6 mphScattered Clouds
3:00 PM82.4 °F73.4 °F74 %29.86 in6.2 miSouth (190°)18.4 mphScattered Clouds
3:30 PM84.2 °F71.6 °F66 %29.86 in6.2 miSSW (200°)13.8 mphScattered Clouds
4:00 PM86.0 °F71.6 °F62 %29.86 in6.2 miSE (140°)5.8 mphScattered Clouds
4:30 PM84.2 °F71.6 °F66 %29.86 in6.2 miNNE (30°)8.1 mphPartly Cloudy
5:00 PM83.0 °F72.0 °F63 %29.89 in19.0 miNE (40°)8.1 mphScattered Clouds
5:00 PM82.4 °F71.6 °F70 %29.89 in6.2 miNE (40°)8.1 mphPartly Cloudy
5:30 PM82.4 °F71.6 °F70 %29.89 in6.2 miNNE (30°)6.9 mphPartly Cloudy
6:00 PM80.6 °F71.6 °F74 %29.89 in6.2 miNNE (30°)3.5 mphPartly Cloudy
6:30 PM82.4 °F73.4 °F74 %29.92 in6.2 miWNW (290°)3.5 mphMostly Cloudy
7:00 PM80.6 °F71.6 °F74 %29.92 in6.2 miCalmScattered Clouds
7:30 PM80.6 °F71.6 °F74 %29.92 in6.2 miESE (110°)4.6 mphScattered Clouds
8:00 PM80.0 °F72.0 °F70 %29.94 in12.0 miNNE (30°)3.5 mphScattered Clouds
8:00 PM80.6 °F71.6 °F74 %29.92 in6.2 miNNE (20°)3.5 mphPartly Cloudy
8:30 PM78.8 °F71.6 °F78 %29.95 in6.2 miVariable3.5 mphPartly Cloudy
9:00 PM78.8 °F71.6 °F78 %29.95 in6.2 miVariable3.5 mphPartly Cloudy
9:30 PM78.8 °F71.6 °F78 %29.95 in6.2 miESE (110°)3.5 mphPartly Cloudy
10:00 PM78.8 °F71.6 °F78 %29.92 in6.2 miVariable3.5 mphPartly Cloudy
10:30 PM78.8 °F71.6 °F78 %29.95 in6.2 miVariable3.5 mphPartly Cloudy
11:00 PM77.0 °F71.0 °F76 %29.95 in12.0 miSE (130°)6.7 mphScattered Clouds
11:00 PM77.0 °F71.6 °F83 %29.95 in6.2 miVariable3.5 mphPartly Cloudy
11:30 PM77.0 °F69.8 °F78 %29.92 in6.2 miEast (100°)4.6 mphPartly Cloudy
Hourly data recorded from NTAA, located miles away from Faaa, French Polynesia







STORIES FROM OUR PARTNERS